Regional Weather Roundup
Issued by NWS Green Bay, WI

Home | Current Version | Previous Version | Graphics & Text | Print | Product List | Glossary Off
Versions: 1 2 3 4 5 6 7 8 9 10 11 12 13 14 15 16 17 18 19 20 21 22 23 24 25 26 27 28 29 30 31 32 33 34 35 36 37 38 39 40 41 42 43 44 45 46 47 48 49 50

000
ASUS43 KGRB 030600
RWRGRB

NORTH-CENTRAL AND NORTHEAST WISCONSIN REGIONAL WEATHER ROUNDUP
NATIONAL WEATHER SERVICE GREEN BAY WI
100 AM CDT FRI JUL 03 2015

WIZ005-009-010>012-018-019-030700-
NORTH CENTRAL WISCONSIN

CITY           SKY/WX    TMP DP  RH WIND       PRES   REMARKS
IRONWOOD       CLEAR     63  54  72 SW8       29.93S
MANITOWISH WTR NOT AVBL
ARBOR VITAE    NOT AVBL
EAGLE RIVER    NOT AVBL
LAND O LAKES   NOT AVBL
RHINELANDER    CLEAR     58  51  78 SW5       30.01S
PHILLIPS       NOT AVBL
ANTIGO         NOT AVBL
TOMAHAWK       NOT AVBL
MERRILL        NOT AVBL
$$

WIZ013-073-030700-
NORTHEAST WISCONSIN

CITY           SKY/WX    TMP DP  RH WIND       PRES   REMARKS
IRON MOUNTAIN  CLEAR     58  48  69 SW3       29.97F
MARINETTE      CLEAR     55  48  76 SW3       29.98S
$$

WIZ017-030-035>037-045-030700-
CENTRAL WISCONSIN

CITY           SKY/WX    TMP DP  RH WIND       PRES   REMARKS
MEDFORD        NOT AVBL
WAUSAU         CLEAR     58  52  80 CALM      30.00S
MOSINEE        NOT AVBL
MARSHFIELD     CLEAR     57  50  77 CALM      30.01S
WISC RAPIDS    CLEAR     57  48  72 CALM      30.02S
STEVENS POINT  NOT AVBL
WAUPACA        NOT AVBL
SHAWANO        NOT AVBL
CLINTONVILLE   NOT AVBL
$$

WIZ038-039-048-051-030700-
FOX VALLEY

CITY           SKY/WX    TMP DP  RH WIND       PRES   REMARKS
NWS GREEN BAY  CLEAR     55  50  83 CALM      30.01S
APPLETON       NOT AVBL
OSHKOSH        CLEAR     54  48  80 S3        30.00F
FOND DU LAC    CLEAR     54  48  80 S5        30.01F
$$

WIZ022-050-052-030700-
EAST CENTRAL WISCONSIN

CITY           SKY/WX    TMP DP  RH WIND       PRES   REMARKS
STURGEON BAY   CLEAR     55  43  62 S5        30.02S
MANITOWOC      NOT AVBL
SHEBOYGAN      CLEAR     50  47  89 CALM      30.01F
$$

LMZ563-521-522-541>543-030700-
LAKESHORE

STATION/POSITION TIME  TEMP    WIND        PRES    VSBY  WAVE
                       AIR SEA DIR/SP/G                  HT/PER
                 (UTC) (F)     (DEG/KT/KT) (MB)    (MI)  (FT/S)
SHEBOYGAN LKSHOR 0500   59     300/  2/  2 1016.8F
KEWAUNEE LKSHORE 0500   55     300/  1/  3 1015.5R
NORTHPORT PIER   0500   56     210/  2/  3 1015.6S
N MID LAKE BUOY  0450   53 49  190/  6/  6 1015.6F         0
S GREEN BAY BUOY 0530   66 69  180/ 10/ 12 1017.0
SISTER BAY LKSHO 0514   59        CALM       N/A
CHAMBERS ISLAND  0500   57      CALM  /  2 1015.6S
MENOMINEE LKSHOR 0500   64     200/  4/  5 1016.1S
$$



USA.gov is the U.S. government's official web portal to all federal, state and local government web resources and services.